Providence, RI

8:19 AM EDT on October 21, 2017 (GMT -0400)
Green State

Weather History for KPVD - September, 2013

Change the Weather History Date:

Monday, September 9, 2013

  Actual Average Record
Temperature  
Mean Temperature 58 °F 67 °F  
Max Temperature 68 °F 77 °F 92 °F (2016)
Min Temperature 48 °F 58 °F 42 °F (1952)
Degree Days  
Heating Degree Days 7 1  
Month to date heating degree days 14 9  
Since 1 July heating degree days 14 18  
Cooling Degree Days 0 4  
Month to date cooling degree days 31 40  
Year to date cooling degree days 853 696  
Growing Degree Days 8 (Base 50)    
Moisture  
Dew Point 45 °F    
Average Humidity 62    
Maximum Humidity 80    
Minimum Humidity 43    
Precipitation  
Precipitation 0.00 in 0.13 in 2.21 in (1924)
Month to date precipitation 3.58 1.11  
Year to date precipitation 34.39 31.71  
Snow  
Snow 0.00 in 0.00 in 0.00 in (2002)
Month to date snowfall 0.0 0.0  
Since 1 July snowfall 0.0 0.0  
Since 1 September snowfall 0.0 0.0  
Snow Depth 0.00 in    
Sea Level Pressure  
Sea Level Pressure 30.20 in    
Wind  
Wind Speed 6 mph (SSW)    
Max Wind Speed 17 mph    
Max Gust Speed 21 mph    
Visibility 10 miles    
Events      
T = Trace of Precipitation, MM = Missing Value Source: NWS Daily Summary

Daily Weather History Graph

Daily Weather History Graph

Search for Another Location

Airport or City:

Trip Planner

Search our weather history database for the weather conditions in past years. The results will help you decide how hot, cold, wet, or windy it might be!

Date:

Astronomy

Sep. 09, 2013 Rise Set
Actual Time 6:20 AM EDT 7:05 PM EDT
Civil Twilight 5:51 AM EDT 7:33 PM EDT
Nautical Twilight 5:18 AM EDT 8:06 PM EDT
Astronomical Twilight 4:43 AM EDT 8:40 PM EDT
Moon 10:42 AM EDT (9/9) 9:14 PM EDT (9/9)
Length of Visible Light 13h 41m
Length of Day
12h 45m
Waxing Crescent, 19% of the Moon is Illuminated
Sep 9
Waxing Crescent
Sep 12
First Quarter
Sep 19
Full
Sep 26
Last Quarter
Oct 4
New

Hourly Weather History & Observations

Time (EDT) Temp. Dew Point Humidity Pressure Visibility Wind Dir Wind Speed Gust Speed Precip Events Conditions
12:51 AM 55.0 °F 39.0 °F 55% 30.12 in 10.0 mi NNW 5.8 mph - N/A   Clear
1:51 AM 53.1 °F 39.9 °F 61% 30.12 in 10.0 mi NNW 5.8 mph - N/A   Clear
2:51 AM 50.0 °F 41.0 °F 71% 30.13 in 10.0 mi Calm Calm - N/A   Clear
3:51 AM 51.1 °F 39.9 °F 66% 30.14 in 10.0 mi NNW 6.9 mph - N/A   Clear
4:51 AM 48.0 °F 41.0 °F 77% 30.17 in 10.0 mi WNW 3.5 mph - N/A   Clear
5:51 AM 48.0 °F 39.9 °F 74% 30.20 in 10.0 mi NNW 5.8 mph - N/A   Partly Cloudy
6:51 AM 50.0 °F 39.9 °F 68% 30.22 in 10.0 mi North 4.6 mph - N/A   Partly Cloudy
7:51 AM 55.0 °F 41.0 °F 59% 30.24 in 10.0 mi Calm Calm - N/A   Scattered Clouds
8:51 AM 59.0 °F 42.1 °F 53% 30.25 in 10.0 mi NNE 3.5 mph - N/A   Mostly Cloudy
9:51 AM 62.1 °F 42.1 °F 48% 30.26 in 10.0 mi Calm Calm - N/A   Mostly Cloudy
10:51 AM 63.0 °F 39.9 °F 43% 30.25 in 10.0 mi SSE 6.9 mph - N/A   Mostly Cloudy
11:51 AM 64.9 °F 44.1 °F 47% 30.24 in 10.0 mi SSW 4.6 mph - N/A   Mostly Cloudy
12:51 PM 66.9 °F 46.0 °F 47% 30.23 in 10.0 mi SSE 10.4 mph - N/A   Mostly Cloudy
1:51 PM 66.0 °F 48.9 °F 54% 30.22 in 10.0 mi SSE 9.2 mph - N/A   Mostly Cloudy
2:51 PM 66.0 °F 48.9 °F 54% 30.20 in 10.0 mi SE 9.2 mph - N/A   Mostly Cloudy
3:51 PM 66.9 °F 44.1 °F 44% 30.21 in 10.0 mi South 13.8 mph - N/A   Mostly Cloudy
4:51 PM 66.0 °F 46.9 °F 50% 30.21 in 10.0 mi SSW 11.5 mph - N/A   Mostly Cloudy
5:51 PM 64.0 °F 48.9 °F 58% 30.20 in 10.0 mi South 12.7 mph - N/A   Mostly Cloudy
6:51 PM 61.0 °F 48.9 °F 64% 30.19 in 10.0 mi SSW 6.9 mph - N/A   Mostly Cloudy
7:51 PM 57.9 °F 51.1 °F 78% 30.19 in 10.0 mi South 4.6 mph - N/A   Mostly Cloudy
8:51 PM 57.0 °F 51.1 °F 81% 30.19 in 10.0 mi SSW 3.5 mph - N/A   Mostly Cloudy
9:51 PM 57.0 °F 50.0 °F 77% 30.19 in 10.0 mi SSW 6.9 mph - N/A   Mostly Cloudy
10:51 PM 57.0 °F 50.0 °F 77% 30.19 in 10.0 mi South 4.6 mph - N/A   Mostly Cloudy
11:51 PM 57.0 °F 50.0 °F 77% 30.19 in 10.0 mi SW 5.8 mph - N/A   Overcast